[[{"header":{"parameterUnit":"m.s-1","parameterCategory":1,"la1":30.2991,"la2":30.254,"lo1":-89.0895,"lo2":-89.0444,"dy":0.0017,"dx":0.0017,"nx":28,"ny":28,"refTime":"2025-12-29T03:00:00:Z","depth":0,"parameterNumber":2,"parameterNumberName":"U-component_of_WINDS"},"data":[0,0,0,0,0,0,0,0,0,0,0,0,0,0,0,0,0,0,0,0,0,0,0,0,0,0,0,0,0,0,0,0,0,0,0,0,0,0,0,0,0,0,0,0,0,0,0,0,0,0,0,0,0,0,0,0,0,0,-1.3674,-1.3673,0,-1.3626,-1.3625,-1.3625,-1.3574,-1.3573,-1.3572,-1.3572,-1.3521,-1.352,-1.352,0,0,0,0,0,0,0,0,0,0,0,0,0,-1.3721,-1.372,-1.3674,-1.3673,-1.3673,-1.3626,-1.3625,-1.3625,-1.3574,-1.3573,-1.3572,-1.3571,-1.3521,-1.352,-1.352,0,0,0,0,0,0,0,0,0,0,0,0,0,-1.3689,-1.372,-1.3674,-1.3642,-1.3638,-1.3626,-1.3625,-1.3624,-1.3574,-1.3573,-1.3572,-1.3571,-1.3521,-1.352,-1.3519,-1.3535,0,0,-1.3516,-1.3516,0,0,0,0,0,0,0,0,-1.3691,-1.3688,-1.3647,-1.3644,-1.364,-1.3605,-1.3623,-1.3594,-1.3574,-1.3598,-1.3572,-1.357,-1.355,-1.3546,-1.3539,-1.3532,-1.353,-1.3516,-1.3516,-1.3515,-1.3515,0,0,0,0,0,0,0,-1.3694,-1.369,-1.3655,-1.3647,-1.3642,-1.3629,-1.3624,-1.3617,-1.3581,-1.3596,-1.3592,-1.3587,-1.3547,-1.3541,-1.3538,-1.3529,-1.3516,-1.3515,-1.3515,-1.3514,-1.3531,-1.3532,0,0,0,0,0,0,-1.3701,-1.3692,-1.3656,-1.3653,-1.3664,-1.3629,-1.3623,-1.3617,-1.358,-1.3574,-1.3588,-1.3585,-1.3543,-1.3539,-1.3536,-1.355,-1.3515,-1.3514,-1.3514,-1.353,-1.3532,-1.3533,0,0,0,0,0,0,-1.3702,-1.3698,-1.3658,-1.3671,-1.3665,-1.363,-1.3623,-1.3617,-1.361,-1.3575,-1.3568,-1.3588,-1.3542,-1.3537,-1.3535,-1.3548,-1.3514,-1.3513,-1.3529,-1.3531,-1.3532,-1.3579,0,0,0,0,0,0,-1.3704,-1.3699,-1.3704,-1.3672,-1.3665,-1.3659,-1.3624,-1.3617,-1.3608,-1.3604,-1.3572,-1.3566,-1.3541,-1.3537,-1.3534,-1.3546,-1.3512,-1.3528,-1.353,-1.3532,-1.3577,-1.3582,-1.3588,0,0,0,0,0,-1.3705,-1.3719,-1.3705,-1.3701,-1.3671,-1.3659,-1.3655,-1.3626,-1.361,-1.3614,-1.3592,-1.3567,-1.3548,-1.3537,-1.3534,-1.3545,-1.3527,-1.3529,-1.3532,-1.3574,-1.3581,-1.3587,0,0,0,0,0,0,-1.3753,-1.3714,-1.3698,-1.3702,-1.3685,-1.3651,-1.3656,-1.3635,-1.3621,-1.3617,-1.3581,-1.3575,-1.3576,-1.3561,-1.355,-1.3557,-1.3534,-1.3535,-1.3567,-1.3574,-1.3579,-1.3582,-1.3511,0,0,0,0,0,-1.3765,-1.3759,-1.3725,-1.3732,-1.3724,-1.3692,-1.3686,-1.3665,-1.3645,-1.3637,-1.3614,-1.3596,-1.3585,-1.3579,-1.3567,-1.3575,-1.3567,-1.3581,-1.3587,-1.3591,-1.3592,-1.3594,-1.36,-1.3541,-1.3541,-1.3541,0,0,-1.3787,-1.3765,-1.3764,-1.3741,-1.3725,-1.3719,-1.3686,-1.3681,-1.3676,-1.3636,-1.3632,-1.3616,-1.3593,-1.3595,-1.3595,-1.3582,-1.3608,-1.3594,-1.3598,-1.3597,-1.3597,-1.3603,-1.3608,-1.3542,-1.3542,-1.3542,0,0,-1.3825,-1.3809,-1.3812,-1.3797,-1.3773,-1.3752,-1.3753,-1.3723,-1.371,-1.3706,-1.3676,-1.367,-1.3653,-1.3637,-1.3627,-1.3661,-1.3637,-1.3658,-1.3686,-1.3688,-1.3693,-1.3697,-1.3707,-1.3712,-1.366,-1.366,-1.366,0,-1.3856,-1.3846,-1.3817,-1.3814,-1.3804,-1.3769,-1.3771,-1.3758,-1.3732,-1.3726,-1.3713,-1.369,-1.3672,-1.367,-1.3679,-1.3672,-1.3671,-1.366,-1.3695,-1.3698,-1.3702,-1.3711,-1.3715,-1.3663,-1.3663,-1.3662,-1.3662,0,-1.3885,-1.3879,-1.3885,-1.386,-1.3852,-1.3852,-1.3822,-1.3817,-1.3797,-1.3777,-1.3774,-1.3751,-1.3734,-1.3733,-1.3713,-1.3728,-1.372,-1.3702,-1.3676,-1.371,-1.3718,-1.3722,-1.3667,-1.3666,-1.3665,-1.3664,0,0,-1.395,-1.391,-1.3912,-1.3901,-1.3873,-1.3867,-1.3866,-1.385,-1.3846,-1.383,-1.3827,-1.3814,-1.3796,-1.3785,-1.3763,-1.3766,-1.3792,-1.3746,-1.3745,-1.3754,-1.3805,-1.3818,-1.3823,-1.3778,-1.3778,-1.3779,-1.3807,0,-1.3981,-1.3976,-1.395,-1.3953,-1.3946,-1.3913,-1.3912,-1.3894,-1.3876,-1.3868,-1.3848,-1.3839,-1.3817,-1.381,-1.3811,-1.3789,-1.3802,-1.3787,-1.3773,-1.3773,-1.3778,-1.3828,-1.3841,-1.3869,-1.381,-1.3811,-1.3811,0,-1.4017,-1.4003,-1.4005,-1.3977,-1.3973,-1.3973,-1.3956,-1.3949,-1.3928,-1.3915,-1.3903,-1.388,-1.3876,-1.3854,-1.3848,-1.3839,-1.3832,-1.3821,-1.3821,-1.3817,-1.3792,-1.3823,-1.3877,-1.388,-1.3816,-1.3816,-1.3815,0,-1.4062,-1.4044,-1.4043,-1.4034,-1.4002,-1.4002,-1.3988,-1.3967,-1.3959,-1.3945,-1.3939,-1.3924,-1.3916,-1.3905,-1.3878,-1.3865,-1.3874,-1.3851,-1.3862,-1.3863,-1.3863,-1.3863,-1.3915,-1.3863,-1.3863,-1.3863,-1.3863,0,-1.4098,-1.4101,-1.4062,-1.4061,-1.4063,-1.4033,-1.4035,-1.4018,-1.4,-1.3995,-1.3966,-1.3962,-1.3928,-1.392,-1.3899,-1.3896,-1.3893,-1.3881,-1.3875,-1.3883,-1.3884,-1.3876,-1.3872,-1.3864,-1.3864,-1.3864,-1.3863,0,-1.4148,-1.4122,-1.4118,-1.4089,-1.4081,-1.4084,-1.4058,-1.4055,-1.4036,-1.403,-1.4027,-1.3997,-1.3986,-1.3959,-1.3941,-1.3926,-1.3929,-1.3919,-1.3935,-1.3931,-1.3943,-1.3942,-1.399,-1.3994,-1.3942,-1.3943,-1.3943,0,-1.4172,-1.4173,-1.4143,-1.4138,-1.4126,-1.4118,-1.4109,-1.408,-1.4073,-1.405,-1.405,-1.4037,-1.4025,-1.4009,-1.3985,-1.3971,-1.396,-1.3978,-1.3957,-1.3964,-1.3958,-1.3957,-1.3956,-1.3981,-1.3982,-1.3983,-1.3983,0,-1.4216,-1.4204,-1.4193,-1.4178,-1.417,-1.4156,-1.4142,-1.4139,-1.4106,-1.41,-1.4088,-1.4079,-1.406,-1.4047,-1.403,-1.4016,-1.3993,-1.399,-1.3992,-1.3998,-1.4006,-1.4,-1.3945,-1.3989,-1.3988,-1.3988,-1.3987,-1.3987,-1.4252,-1.4251,-1.423,-1.4219,-1.4205,-1.4192,-1.4189,-1.4169,-1.4159,-1.4142,-1.4126,-1.4116,-1.4096,-1.407,-1.4058,-1.4049,-1.4038,-1.404,-1.4041,-1.4041,-1.4044,-1.401,-1.4046,-1.4046,-1.4046,-1.4046,-1.4045,0,-1.4294,-1.4279,-1.4269,-1.425,-1.4241,-1.4223,-1.4206,-1.4199,-1.4191,-1.4174,-1.4163,-1.415,-1.4137,-1.4113,-1.4098,-1.4096,-1.4086,-1.4093,-1.4092,-1.4089,-1.4056,-1.4055,-1.4102,-1.4102,-1.4102,-1.4102,-1.4102,-1.4102,-1.4314,-1.4311,-1.4296,-1.4286,-1.4271,-1.4261,-1.4253,-1.4241,-1.4227,-1.4214,-1.4203,-1.4188,-1.4168,-1.4152,-1.4139,-1.4132,-1.4127,-1.4138,-1.4127,-1.4096,-1.4091,-1.4086,-1.4085,-1.4137,-1.4137,-1.4161,-1.4161,-1.4161]},{"header":{"parameterUnit":"m.s-1","parameterCategory":1,"la1":30.2991,"la2":30.254,"lo1":-89.0895,"lo2":-89.0444,"dy":0.0017,"dx":0.0017,"nx":28,"ny":28,"refTime":"2025-12-29T03:00:00:Z","depth":0,"parameterNumber":3,"parameterNumberName":"V-component_of_WINDS"},"data":[0,0,0,0,0,0,0,0,0,0,0,0,0,0,0,0,0,0,0,0,0,0,0,0,0,0,0,0,0,0,0,0,0,0,0,0,0,0,0,0,0,0,0,0,0,0,0,0,0,0,0,0,0,0,0,0,0,0,3.4196,3.4196,0,3.423,3.4231,3.4231,3.4264,3.4264,3.4265,3.4265,3.4298,3.4298,3.4299,0,0,0,0,0,0,0,0,0,0,0,0,0,3.4157,3.4157,3.4196,3.4196,3.4197,3.423,3.4231,3.4231,3.4264,3.4264,3.4265,3.4265,3.4298,3.4298,3.4299,0,0,0,0,0,0,0,0,0,0,0,0,0,3.4181,3.4157,3.4196,3.4217,3.4219,3.423,3.4231,3.4231,3.4264,3.4264,3.4265,3.4265,3.4297,3.4298,3.4299,3.4291,0,0,3.4301,3.4301,0,0,0,0,0,0,0,0,3.4179,3.4182,3.4213,3.4215,3.4218,3.4243,3.4229,3.4251,3.4263,3.4247,3.4265,3.4266,3.4279,3.4281,3.4286,3.4292,3.4294,3.4301,3.4302,3.4302,3.4302,0,0,0,0,0,0,0,3.4178,3.4181,3.4209,3.4214,3.4217,3.4224,3.4229,3.4233,3.4259,3.4248,3.4251,3.4254,3.428,3.4286,3.4287,3.4294,3.4301,3.4302,3.4302,3.4303,3.4298,3.4298,0,0,0,0,0,0,3.4173,3.4179,3.4208,3.421,3.42,3.4225,3.4229,3.4235,3.4259,3.4263,3.4254,3.4256,3.4284,3.4286,3.4289,3.4283,3.4302,3.4303,3.4303,3.4299,3.4298,3.4298,0,0,0,0,0,0,3.4172,3.4175,3.4207,3.4195,3.42,3.4225,3.423,3.4235,3.424,3.4263,3.4268,3.4255,3.4285,3.4288,3.4291,3.4285,3.4303,3.4304,3.43,3.4299,3.4298,3.427,0,0,0,0,0,0,3.4171,3.4175,3.4172,3.4195,3.4201,3.4209,3.423,3.4235,3.4242,3.4245,3.4265,3.4269,3.4285,3.429,3.4292,3.4286,3.4304,3.43,3.4299,3.4298,3.4272,3.4269,3.4266,0,0,0,0,0,3.4169,3.4161,3.4171,3.4175,3.4198,3.4208,3.4211,3.4231,3.4241,3.4239,3.4254,3.4268,3.4285,3.429,3.4292,3.4287,3.4301,3.4299,3.4298,3.4273,3.4269,3.4266,0,0,0,0,0,0,3.4135,3.4165,3.4176,3.4176,3.419,3.4214,3.4211,3.4226,3.4236,3.4238,3.4261,3.4265,3.4267,3.4277,3.4282,3.4281,3.4295,3.4294,3.4275,3.4271,3.4268,3.4266,3.4305,0,0,0,0,0,3.4128,3.4134,3.416,3.4157,3.4163,3.4186,3.4191,3.4206,3.422,3.4226,3.4241,3.4254,3.4262,3.4267,3.4276,3.4273,3.4279,3.4271,3.4268,3.4265,3.4264,3.4266,3.4263,3.4294,3.4294,3.4294,0,0,3.4112,3.4129,3.4132,3.4151,3.4163,3.4169,3.419,3.4196,3.4201,3.4226,3.4231,3.4243,3.4259,3.426,3.4261,3.4268,3.4257,3.4264,3.4261,3.4262,3.4264,3.4262,3.4259,3.4293,3.4293,3.4293,0,0,3.4088,3.4101,3.4101,3.4114,3.4133,3.4148,3.4148,3.4171,3.418,3.4186,3.4206,3.4212,3.4225,3.4236,3.4244,3.4226,3.4241,3.4228,3.4213,3.4214,3.4212,3.421,3.4205,3.4203,3.4227,3.4227,3.4227,0,3.4066,3.4077,3.4099,3.4105,3.4113,3.4138,3.4139,3.4149,3.4169,3.4175,3.4183,3.4202,3.4214,3.4219,3.4216,3.422,3.4222,3.4226,3.421,3.4209,3.4207,3.4203,3.4201,3.4226,3.4226,3.4226,3.4226,0,3.405,3.4058,3.4056,3.4077,3.4085,3.4088,3.4111,3.4116,3.413,3.4145,3.4151,3.4167,3.4181,3.4183,3.4195,3.419,3.4195,3.4206,3.422,3.4202,3.4199,3.4197,3.4224,3.4224,3.4225,3.4225,0,0,3.4005,3.404,3.4039,3.405,3.4074,3.408,3.4084,3.4099,3.4104,3.4117,3.4122,3.4134,3.4146,3.4154,3.4169,3.417,3.4157,3.4181,3.4182,3.4178,3.4155,3.4147,3.4145,3.4167,3.4166,3.4166,3.4154,0,3.3985,3.3996,3.4018,3.4022,3.403,3.4054,3.4059,3.4073,3.4088,3.4097,3.4112,3.4121,3.4134,3.414,3.4142,3.4158,3.4153,3.4159,3.4172,3.4172,3.4169,3.4143,3.4134,3.4121,3.4152,3.4152,3.4152,0,3.3964,3.3979,3.3984,3.401,3.4014,3.4017,3.4034,3.4042,3.4059,3.407,3.4081,3.4097,3.4104,3.4116,3.4126,3.413,3.4137,3.4145,3.4145,3.4148,3.4162,3.4146,3.4118,3.4116,3.415,3.415,3.415,0,3.3933,3.3953,3.396,3.3968,3.3997,3.4,3.4012,3.403,3.4039,3.4053,3.4059,3.4072,3.408,3.4091,3.4111,3.4118,3.4119,3.4133,3.4128,3.4128,3.4128,3.4128,3.4102,3.413,3.413,3.413,3.413,0,3.391,3.3913,3.3947,3.3951,3.3955,3.3979,3.3983,3.3997,3.4014,3.4021,3.4042,3.4049,3.4074,3.4084,3.4099,3.4106,3.4109,3.4118,3.4122,3.4117,3.4116,3.4122,3.4124,3.413,3.413,3.413,3.413,0,3.3876,3.3899,3.3908,3.3936,3.3943,3.3945,3.3968,3.3974,3.399,3.3999,3.4003,3.4028,3.404,3.4061,3.4079,3.4089,3.4094,3.41,3.4088,3.4091,3.4086,3.4087,3.4064,3.4063,3.409,3.409,3.409,0,3.3861,3.3864,3.3893,3.39,3.3912,3.3923,3.3932,3.3957,3.3965,3.3987,3.399,3.4004,3.4017,3.4036,3.4056,3.407,3.4078,3.4069,3.408,3.4075,3.4079,3.408,3.4081,3.4066,3.4066,3.4065,3.4065,0,3.3832,3.3843,3.3856,3.3874,3.3885,3.3899,3.3915,3.3919,3.3947,3.3956,3.397,3.398,3.4,3.4014,3.4032,3.4044,3.4059,3.4062,3.4062,3.4057,3.405,3.4055,3.4083,3.4062,3.4062,3.4063,3.4063,3.4063,3.3808,3.3813,3.3835,3.3849,3.3864,3.3878,3.3885,3.3903,3.3916,3.3935,3.3948,3.3961,3.3981,3.4006,3.4017,3.4028,3.4035,3.4035,3.4035,3.4035,3.4033,3.4048,3.4031,3.4031,3.4031,3.4031,3.4032,0,3.3781,3.3797,3.381,3.3833,3.3844,3.3859,3.3878,3.3886,3.3898,3.3915,3.3929,3.3945,3.396,3.3981,3.3998,3.4002,3.401,3.4006,3.4006,3.4009,3.4025,3.4025,3.3999,3.3999,3.3999,3.3999,3.3999,3.3999,3.3769,3.3779,3.3793,3.3811,3.3827,3.3841,3.3851,3.3865,3.3879,3.3897,3.391,3.3924,3.3944,3.3962,3.3976,3.3982,3.3988,3.3982,3.399,3.4005,3.4008,3.401,3.401,3.3982,3.3982,3.3973,3.3973,3.3973]}]]